Time,TemperatureF,DewpointF,PressureIn,WindDirection,WindDirectionDegrees,WindSpeedMPH,WindSpeedGustMPH,Humidity,HourlyPrecipIn,Conditions,Clouds,dailyrainin,SolarRadiationWatts/m^2,SoftwareType,DateUTC
2013-05-14 00:00:00,51.6,32.0,30.29,NW,315,1.0,6.0,47,0.00,,,0.00,0,WeatherCatV1.15B25,2013-05-14 06:00:00,
2013-05-14 00:05:00,50.8,31.8,30.28,WNW,292,1.0,10.0,48,0.00,,,0.00,0,WeatherCatV1.15B25,2013-05-14 06:05:00,
2013-05-14 00:10:00,50.8,31.8,30.28,WNW,292,1.0,10.0,48,0.00,,,0.00,0,WeatherCatV1.15B25,2013-05-14 06:10:00,
2013-05-14 00:15:00,50.8,31.8,30.28,WNW,292,1.0,10.0,48,0.00,,,0.00,0,WeatherCatV1.15B25,2013-05-14 06:15:00,
2013-05-14 00:20:00,50.2,32.3,30.28,WNW,292,0.0,3.0,50,0.00,,,0.00,0,WeatherCatV1.15B25,2013-05-14 06:20:00,
2013-05-14 00:25:00,50.2,32.3,30.28,WNW,292,0.0,3.0,50,0.00,,,0.00,0,WeatherCatV1.15B25,2013-05-14 06:25:00,
2013-05-14 00:30:00,50.2,32.3,30.28,WNW,292,0.0,3.0,50,0.00,,,0.00,0,WeatherCatV1.15B25,2013-05-14 06:30:00,
2013-05-14 00:35:00,49.5,31.6,30.28,West,270,3.0,11.0,50,0.00,,,0.00,0,WeatherCatV1.15B25,2013-05-14 06:35:00,
2013-05-14 00:40:00,49.5,31.6,30.28,West,270,3.0,11.0,50,0.00,,,0.00,0,WeatherCatV1.15B25,2013-05-14 06:40:00,
2013-05-14 00:45:00,49.5,31.6,30.28,West,270,3.0,11.0,50,0.00,,,0.00,0,WeatherCatV1.15B25,2013-05-14 06:45:00,
2013-05-14 00:50:00,50.2,32.3,30.27,NW,315,5.0,12.0,50,0.00,,,0.00,0,WeatherCatV1.15B25,2013-05-14 06:50:00,
2013-05-14 00:55:00,50.2,32.3,30.27,NW,315,5.0,12.0,50,0.00,,,0.00,0,WeatherCatV1.15B25,2013-05-14 06:55:00,
2013-05-14 01:00:00,50.2,32.3,30.27,NW,315,5.0,12.0,50,0.00,,,0.00,0,WeatherCatV1.15B25,2013-05-14 07:00:00,
2013-05-14 01:05:00,50.7,32.7,30.27,WNW,292,6.0,12.0,50,0.00,,,0.00,0,WeatherCatV1.15B25,2013-05-14 07:05:00,
2013-05-14 01:10:00,50.7,32.7,30.27,WNW,292,6.0,12.0,50,0.00,,,0.00,0,WeatherCatV1.15B25,2013-05-14 07:10:00,
2013-05-14 01:15:00,50.7,32.7,30.27,WNW,292,6.0,12.0,50,0.00,,,0.00,0,WeatherCatV1.15B25,2013-05-14 07:15:00,
2013-05-14 01:20:00,51.0,32.5,30.27,NW,315,5.0,10.0,49,0.00,,,0.00,0,WeatherCatV1.15B25,2013-05-14 07:20:00,
2013-05-14 01:25:00,51.0,32.5,30.27,NW,315,5.0,10.0,49,0.00,,,0.00,0,WeatherCatV1.15B25,2013-05-14 07:25:00,
2013-05-14 01:30:00,50.7,32.3,30.26,West,270,6.0,10.0,49,0.00,,,0.00,0,WeatherCatV1.15B25,2013-05-14 07:30:00,
2013-05-14 01:35:00,50.7,32.3,30.26,West,270,6.0,10.0,49,0.00,,,0.00,0,WeatherCatV1.15B25,2013-05-14 07:35:00,
2013-05-14 01:40:00,50.7,32.3,30.26,West,270,6.0,10.0,49,0.00,,,0.00,0,WeatherCatV1.15B25,2013-05-14 07:40:00,
2013-05-14 01:45:00,50.1,32.2,30.26,WNW,292,6.0,11.0,50,0.00,,,0.00,0,WeatherCatV1.15B25,2013-05-14 07:45:00,
2013-05-14 01:50:00,50.1,32.2,30.26,WNW,292,6.0,11.0,50,0.00,,,0.00,0,WeatherCatV1.15B25,2013-05-14 07:50:00,
2013-05-14 01:55:00,50.1,32.2,30.26,WNW,292,6.0,11.0,50,0.00,,,0.00,0,WeatherCatV1.15B25,2013-05-14 07:55:00,
2013-05-14 02:00:00,49.9,32.5,30.26,WNW,292,6.0,11.0,51,0.00,,,0.00,0,WeatherCatV1.15B25,2013-05-14 08:00:00,
2013-05-14 02:05:00,49.9,32.5,30.26,WNW,292,6.0,11.0,51,0.00,,,0.00,0,WeatherCatV1.15B25,2013-05-14 08:05:00,
2013-05-14 02:10:00,49.9,32.5,30.26,WNW,292,6.0,11.0,51,0.00,,,0.00,0,WeatherCatV1.15B25,2013-05-14 08:10:00,
2013-05-14 02:15:00,49.9,32.5,30.26,WNW,292,6.0,11.0,51,0.00,,,0.00,0,WeatherCatV1.15B25,2013-05-14 08:15:00,
2013-05-14 02:20:00,48.3,32.0,30.25,WNW,292,0.0,1.0,53,0.00,,,0.00,0,WeatherCatV1.15B25,2013-05-14 08:20:00,
2013-05-14 02:25:00,48.3,32.0,30.25,WNW,292,0.0,1.0,53,0.00,,,0.00,0,WeatherCatV1.15B25,2013-05-14 08:25:00,
2013-05-14 02:30:00,48.3,32.0,30.25,WNW,292,0.0,1.0,53,0.00,,,0.00,0,WeatherCatV1.15B25,2013-05-14 08:30:00,
2013-05-14 02:35:00,47.0,32.1,30.25,WNW,292,1.0,7.0,56,0.00,,,0.00,0,WeatherCatV1.15B25,2013-05-14 08:35:00,
2013-05-14 02:40:00,47.0,32.1,30.25,WNW,292,1.0,7.0,56,0.00,,,0.00,0,WeatherCatV1.15B25,2013-05-14 08:40:00,
2013-05-14 02:45:00,47.0,32.1,30.25,WNW,292,1.0,7.0,56,0.00,,,0.00,0,WeatherCatV1.15B25,2013-05-14 08:45:00,
2013-05-14 02:50:00,46.4,32.4,30.25,WNW,292,1.0,5.0,58,0.00,,,0.00,0,WeatherCatV1.15B25,2013-05-14 08:50:00,
2013-05-14 02:55:00,46.4,32.4,30.25,WNW,292,1.0,5.0,58,0.00,,,0.00,0,WeatherCatV1.15B25,2013-05-14 08:55:00,
2013-05-14 03:00:00,46.4,32.4,30.25,WNW,292,1.0,5.0,58,0.00,,,0.00,0,WeatherCatV1.15B25,2013-05-14 09:00:00,
2013-05-14 03:05:00,47.4,31.6,30.25,WNW,292,4.0,13.0,54,0.00,,,0.00,0,WeatherCatV1.15B25,2013-05-14 09:05:00,
2013-05-14 03:10:00,47.4,31.6,30.25,WNW,292,4.0,13.0,54,0.00,,,0.00,0,WeatherCatV1.15B25,2013-05-14 09:10:00,
2013-05-14 03:15:00,47.4,31.6,30.25,WNW,292,4.0,13.0,54,0.00,,,0.00,0,WeatherCatV1.15B25,2013-05-14 09:15:00,
2013-05-14 03:20:00,49.2,31.9,30.25,WNW,292,9.0,14.0,51,0.00,,,0.00,0,WeatherCatV1.15B25,2013-05-14 09:20:00,
2013-05-14 03:25:00,49.2,31.9,30.25,WNW,292,9.0,14.0,51,0.00,,,0.00,0,WeatherCatV1.15B25,2013-05-14 09:25:00,
2013-05-14 03:30:00,49.2,31.9,30.25,WNW,292,9.0,14.0,51,0.00,,,0.00,0,WeatherCatV1.15B25,2013-05-14 09:30:00,
2013-05-14 03:35:00,48.8,31.5,30.25,NW,315,8.0,12.0,51,0.00,,,0.00,0,WeatherCatV1.15B25,2013-05-14 09:35:00,
2013-05-14 03:40:00,48.8,31.5,30.25,NW,315,8.0,12.0,51,0.00,,,0.00,0,WeatherCatV1.15B25,2013-05-14 09:40:00,
2013-05-14 03:45:00,48.8,31.5,30.25,NW,315,8.0,12.0,51,0.00,,,0.00,0,WeatherCatV1.15B25,2013-05-14 09:45:00,
2013-05-14 03:50:00,48.9,31.6,30.25,NW,315,8.0,12.0,51,0.00,,,0.00,0,WeatherCatV1.15B25,2013-05-14 09:50:00,
2013-05-14 03:55:00,48.9,31.6,30.25,NW,315,8.0,12.0,51,0.00,,,0.00,0,WeatherCatV1.15B25,2013-05-14 09:55:00,
2013-05-14 04:00:00,48.9,31.6,30.25,NW,315,8.0,12.0,51,0.00,,,0.00,0,WeatherCatV1.15B25,2013-05-14 10:00:00,
2013-05-14 04:05:00,48.6,31.8,30.25,WNW,292,6.0,11.0,52,0.00,,,0.00,0,WeatherCatV1.15B25,2013-05-14 10:05:00,
2013-05-14 04:10:00,48.6,31.8,30.25,WNW,292,6.0,11.0,52,0.00,,,0.00,0,WeatherCatV1.15B25,2013-05-14 10:10:00,
2013-05-14 04:15:00,48.6,31.8,30.25,WNW,292,6.0,11.0,52,0.00,,,0.00,0,WeatherCatV1.15B25,2013-05-14 10:15:00,
2013-05-14 04:20:00,45.5,32.0,30.25,WNW,292,5.0,9.0,59,0.00,,,0.00,0,WeatherCatV1.15B25,2013-05-14 10:20:00,
2013-05-14 04:25:00,45.5,32.0,30.25,WNW,292,5.0,9.0,59,0.00,,,0.00,0,WeatherCatV1.15B25,2013-05-14 10:25:00,
2013-05-14 04:30:00,45.5,32.0,30.25,WNW,292,5.0,9.0,59,0.00,,,0.00,0,WeatherCatV1.15B25,2013-05-14 10:30:00,
2013-05-14 04:35:00,45.8,31.4,30.25,WNW,292,4.0,11.0,57,0.00,,,0.00,0,WeatherCatV1.15B25,2013-05-14 10:35:00,
2013-05-14 04:40:00,45.8,31.4,30.25,WNW,292,4.0,11.0,57,0.00,,,0.00,0,WeatherCatV1.15B25,2013-05-14 10:40:00,
2013-05-14 04:45:00,45.8,31.4,30.25,WNW,292,4.0,11.0,57,0.00,,,0.00,0,WeatherCatV1.15B25,2013-05-14 10:45:00,
2013-05-14 04:50:00,43.9,31.3,30.25,North,0,0.0,3.0,61,0.00,,,0.00,0,WeatherCatV1.15B25,2013-05-14 10:50:00,
2013-05-14 04:55:00,43.9,31.3,30.25,North,0,0.0,3.0,61,0.00,,,0.00,0,WeatherCatV1.15B25,2013-05-14 10:55:00,
2013-05-14 05:07:00,43.9,31.3,30.25,North,0,0.0,3.0,61,0.00,,,0.00,0,WeatherCatV1.15B25,2013-05-14 11:07:00,
2013-05-14 05:12:00,42.8,31.1,30.24,NW,313,2.0,4.0,63,0.00,,,0.00,0,WeatherCatV1.15B25,2013-05-14 11:12:00,
2013-05-14 05:17:00,43.1,31.4,30.24,NW,313,2.0,2.0,63,0.00,,,0.00,0,WeatherCatV1.15B25,2013-05-14 11:17:00,
2013-05-14 05:22:00,43.2,31.5,30.24,NW,313,4.0,4.0,63,0.00,,,0.00,0,WeatherCatV1.15B25,2013-05-14 11:22:00,
2013-05-14 05:27:00,43.3,31.2,30.24,NW,313,2.0,5.0,62,0.00,,,0.00,0,WeatherCatV1.15B25,2013-05-14 11:27:00,
2013-05-14 05:32:00,43.3,31.2,30.24,NW,313,0.0,0.0,62,0.00,,,0.00,0,WeatherCatV1.15B25,2013-05-14 11:32:00,
2013-05-14 05:36:00,43.1,31.4,30.24,NW,313,2.0,6.0,63,0.00,,,0.00,0,WeatherCatV1.15B25,2013-05-14 11:36:00,
2013-05-14 05:41:00,42.6,31.3,30.24,NW,315,8.0,8.0,64,0.00,,,0.00,0,WeatherCatV1.15B25,2013-05-14 11:41:00,
2013-05-14 05:46:00,43.1,31.0,30.24,NW,311,9.0,10.0,62,0.00,,,0.00,0,WeatherCatV1.15B25,2013-05-14 11:46:00,
2013-05-14 05:51:00,44.3,30.9,30.24,NW,318,2.0,6.0,59,0.00,,,0.00,0,WeatherCatV1.15B25,2013-05-14 11:51:00,
2013-05-14 05:56:00,44.6,31.2,30.24,NNW,340,6.0,6.0,59,0.00,,,0.00,0,WeatherCatV1.15B25,2013-05-14 11:56:00,
2013-05-14 06:01:00,44.5,31.1,30.24,NNW,344,0.0,5.0,59,0.00,,,0.00,5,WeatherCatV1.15B25,2013-05-14 12:01:00,
2013-05-14 06:06:00,44.5,31.5,30.24,NNW,339,3.0,7.0,60,0.00,,,0.00,7,WeatherCatV1.15B25,2013-05-14 12:06:00,
2013-05-14 06:11:00,44.3,31.3,30.24,NNW,335,3.0,5.0,60,0.00,,,0.00,12,WeatherCatV1.15B25,2013-05-14 12:11:00,
2013-05-14 06:16:00,44.2,31.6,30.24,NW,313,2.0,3.0,61,0.00,,,0.00,14,WeatherCatV1.15B25,2013-05-14 12:16:00,
2013-05-14 06:21:00,43.3,31.6,30.24,NW,315,3.0,5.0,63,0.00,,,0.00,16,WeatherCatV1.15B25,2013-05-14 12:21:00,
2013-05-14 06:26:00,42.9,31.6,30.24,NW,315,0.0,3.0,64,0.00,,,0.00,19,WeatherCatV1.15B25,2013-05-14 12:26:00,
2013-05-14 06:31:00,43.1,31.0,30.24,NW,312,0.0,3.0,62,0.00,,,0.00,21,WeatherCatV1.15B25,2013-05-14 12:31:00,
2013-05-14 06:36:00,43.5,31.4,30.24,NW,312,3.0,4.0,62,0.00,,,0.00,23,WeatherCatV1.15B25,2013-05-14 12:36:00,
2013-05-14 06:41:00,43.6,31.5,30.24,NW,312,3.0,4.0,62,0.00,,,0.00,25,WeatherCatV1.15B25,2013-05-14 12:41:00,
2013-05-14 06:46:00,43.6,31.0,30.25,NW,325,0.0,0.0,61,0.00,,,0.00,26,WeatherCatV1.15B25,2013-05-14 12:46:00,
2013-05-14 06:51:00,43.6,31.8,30.25,NW,325,0.0,0.0,63,0.00,,,0.00,26,WeatherCatV1.15B25,2013-05-14 12:51:00,
2013-05-14 06:56:00,44.1,32.3,30.25,NW,325,0.0,0.0,63,0.00,,,0.00,143,WeatherCatV1.15B25,2013-05-14 12:56:00,
2013-05-14 07:01:00,45.4,32.7,30.25,NNW,328,3.0,6.0,61,0.00,,,0.00,185,WeatherCatV1.15B25,2013-05-14 13:01:00,
2013-05-14 07:06:00,46.8,33.2,30.25,NNW,328,1.0,1.0,59,0.00,,,0.00,201,WeatherCatV1.15B25,2013-05-14 13:06:00,
2013-05-14 07:11:00,48.5,33.1,30.25,NNW,328,0.0,1.0,55,0.00,,,0.00,218,WeatherCatV1.15B25,2013-05-14 13:11:00,
2013-05-14 07:16:00,49.8,33.4,30.25,WNW,301,0.0,0.0,53,0.00,,,0.00,236,WeatherCatV1.15B25,2013-05-14 13:16:00,
2013-05-14 07:21:00,50.4,33.9,30.25,WNW,301,0.0,0.0,53,0.00,,,0.00,252,WeatherCatV1.15B25,2013-05-14 13:21:00,
2013-05-14 07:26:00,50.2,34.2,30.25,WNW,301,0.0,1.0,54,0.00,,,0.00,271,WeatherCatV1.15B25,2013-05-14 13:26:00,
2013-05-14 07:31:00,50.4,33.9,30.25,WNW,301,0.0,0.0,53,0.00,,,0.00,290,WeatherCatV1.15B25,2013-05-14 13:31:00,
2013-05-14 07:36:00,50.7,33.7,30.25,WNW,301,0.0,0.0,52,0.00,,,0.00,304,WeatherCatV1.15B25,2013-05-14 13:36:00,
2013-05-14 07:41:00,51.1,34.6,30.25,WNW,295,0.0,2.0,53,0.00,,,0.00,326,WeatherCatV1.15B25,2013-05-14 13:41:00,
2013-05-14 07:46:00,51.4,34.4,30.24,WNW,294,0.0,4.0,52,0.00,,,0.00,345,WeatherCatV1.15B25,2013-05-14 13:46:00,
2013-05-14 07:51:00,51.9,33.8,30.24,WNW,294,0.0,2.0,50,0.00,,,0.00,364,WeatherCatV1.15B25,2013-05-14 13:51:00,
2013-05-14 07:56:00,52.5,34.4,30.24,WNW,294,0.0,0.0,50,0.00,,,0.00,378,WeatherCatV1.15B25,2013-05-14 13:56:00,
2013-05-14 08:01:00,53.3,34.6,30.24,WNW,294,0.0,0.0,49,0.00,,,0.00,401,WeatherCatV1.15B25,2013-05-14 14:01:00,
2013-05-14 08:06:00,53.9,34.1,30.24,WNW,294,0.0,0.0,47,0.00,,,0.00,421,WeatherCatV1.15B25,2013-05-14 14:06:00,
2013-05-14 08:11:00,54.4,34.1,30.24,WNW,294,0.0,0.0,46,0.00,,,0.00,436,WeatherCatV1.15B25,2013-05-14 14:11:00,
2013-05-14 08:16:00,54.8,33.9,30.24,WNW,292,3.0,3.0,45,0.00,,,0.00,429,WeatherCatV1.15B25,2013-05-14 14:16:00,
2013-05-14 08:21:00,55.0,34.6,30.24,WNW,292,1.0,1.0,46,0.00,,,0.00,431,WeatherCatV1.15B25,2013-05-14 14:21:00,
2013-05-14 08:26:00,55.0,34.1,30.24,WSW,256,4.0,4.0,45,0.00,,,0.00,450,WeatherCatV1.15B25,2013-05-14 14:26:00,
2013-05-14 08:31:00,55.4,33.3,30.24,WSW,254,0.0,3.0,43,0.00,,,0.00,470,WeatherCatV1.15B25,2013-05-14 14:31:00,
2013-05-14 08:36:00,55.9,33.7,30.24,WSW,253,0.0,5.0,43,0.00,,,0.00,493,WeatherCatV1.15B25,2013-05-14 14:36:00,
2013-05-14 08:41:00,56.6,34.9,30.24,WSW,250,2.0,5.0,44,0.00,,,0.00,500,WeatherCatV1.15B25,2013-05-14 14:41:00,
2013-05-14 08:46:00,56.9,34.6,30.25,South,185,6.0,7.0,43,0.00,,,0.00,519,WeatherCatV1.15B25,2013-05-14 14:46:00,
2013-05-14 08:51:00,57.3,34.4,30.25,South,171,0.0,2.0,42,0.00,,,0.00,582,WeatherCatV1.15B25,2013-05-14 14:51:00,
2013-05-14 08:56:00,58.1,34.5,30.25,South,171,0.0,3.0,41,0.00,,,0.00,596,WeatherCatV1.15B25,2013-05-14 14:56:00,
2013-05-14 09:01:00,58.6,35.0,30.24,SSE,164,4.0,5.0,41,0.00,,,0.00,611,WeatherCatV1.15B25,2013-05-14 15:01:00,
2013-05-14 09:06:00,59.0,35.9,30.24,SSE,164,4.0,6.0,42,0.00,,,0.00,626,WeatherCatV1.15B25,2013-05-14 15:06:00,
2013-05-14 09:11:00,59.3,35.6,30.24,SSE,162,0.0,2.0,41,0.00,,,0.00,640,WeatherCatV1.15B25,2013-05-14 15:11:00,
2013-05-14 09:16:00,60.1,35.1,30.24,SSE,161,5.0,5.0,39,0.00,,,0.00,653,WeatherCatV1.15B25,2013-05-14 15:16:00,
2013-05-14 09:21:00,60.5,34.8,30.24,SSE,161,0.0,3.0,38,0.00,,,0.00,667,WeatherCatV1.15B25,2013-05-14 15:21:00,
2013-05-14 09:26:00,60.7,33.6,30.24,SSE,160,0.0,0.0,36,0.00,,,0.00,679,WeatherCatV1.15B25,2013-05-14 15:26:00,
2013-05-14 09:31:00,61.2,34.0,30.23,SSE,160,0.0,3.0,36,0.00,,,0.00,693,WeatherCatV1.15B25,2013-05-14 15:31:00,
2013-05-14 09:36:00,62.0,34.0,30.23,SSE,160,2.0,4.0,35,0.00,,,0.00,663,WeatherCatV1.15B25,2013-05-14 15:36:00,
2013-05-14 09:41:00,62.6,33.8,30.23,SSE,157,5.0,7.0,34,0.00,,,0.00,653,WeatherCatV1.15B25,2013-05-14 15:41:00,
2013-05-14 09:46:00,63.2,33.6,30.23,SSE,157,1.0,2.0,33,0.00,,,0.00,734,WeatherCatV1.15B25,2013-05-14 15:46:00,
2013-05-14 09:51:00,64.2,32.9,30.23,SSE,154,0.0,2.0,31,0.00,,,0.00,746,WeatherCatV1.15B25,2013-05-14 15:51:00,
2013-05-14 09:56:00,65.0,33.6,30.23,SSE,154,0.0,3.0,31,0.00,,,0.00,758,WeatherCatV1.15B25,2013-05-14 15:56:00,
2013-05-14 10:01:00,65.6,34.1,30.23,SSE,151,0.0,2.0,31,0.00,,,0.00,774,WeatherCatV1.15B25,2013-05-14 16:01:00,
2013-05-14 10:06:00,66.1,33.8,30.23,SE,133,3.0,9.0,30,0.00,,,0.00,788,WeatherCatV1.15B25,2013-05-14 16:06:00,
2013-05-14 10:11:00,66.4,32.3,30.23,ESE,103,7.0,7.0,28,0.00,,,0.00,801,WeatherCatV1.15B25,2013-05-14 16:11:00,
2013-05-14 10:16:00,67.1,33.8,30.23,ENE,78,0.0,6.0,29,0.00,,,0.00,811,WeatherCatV1.15B25,2013-05-14 16:16:00,
2013-05-14 10:21:00,67.6,33.3,30.23,East,88,9.0,9.0,28,0.00,,,0.00,827,WeatherCatV1.15B25,2013-05-14 16:21:00,
2013-05-14 10:26:00,68.4,32.2,30.23,East,85,0.0,4.0,26,0.00,,,0.00,830,WeatherCatV1.15B25,2013-05-14 16:26:00,
2013-05-14 10:31:00,68.3,30.1,30.22,SE,137,3.0,8.0,24,0.00,,,0.00,822,WeatherCatV1.15B25,2013-05-14 16:31:00,
2013-05-14 10:36:00,68.1,30.9,30.22,SE,134,6.0,8.0,25,0.00,,,0.00,857,WeatherCatV1.15B25,2013-05-14 16:36:00,
2013-05-14 10:41:00,67.9,29.8,30.22,SSE,154,4.0,4.0,24,0.00,,,0.00,876,WeatherCatV1.15B25,2013-05-14 16:41:00,
2013-05-14 10:46:00,68.4,32.2,30.22,SSW,213,5.0,5.0,26,0.00,,,0.00,896,WeatherCatV1.15B25,2013-05-14 16:46:00,
2013-05-14 10:51:00,69.4,31.0,30.22,East,95,0.0,6.0,24,0.00,,,0.00,918,WeatherCatV1.15B25,2013-05-14 16:51:00,
2013-05-14 10:56:00,69.8,29.2,30.22,NE,56,5.0,8.0,22,0.00,,,0.00,869,WeatherCatV1.15B25,2013-05-14 16:56:00,
2013-05-14 11:01:00,69.6,27.9,30.21,East,95,5.0,7.0,21,0.00,,,0.00,908,WeatherCatV1.15B25,2013-05-14 17:01:00,
2013-05-14 11:06:00,69.8,30.3,30.21,SSE,158,5.0,11.0,23,0.00,,,0.00,980,WeatherCatV1.15B25,2013-05-14 17:06:00,
2013-05-14 11:11:00,70.1,31.6,30.21,SSE,165,6.0,12.0,24,0.00,,,0.00,1012,WeatherCatV1.15B25,2013-05-14 17:11:00,
2013-05-14 11:16:00,70.1,27.2,30.21,SE,137,1.0,7.0,20,0.00,,,0.00,1049,WeatherCatV1.15B25,2013-05-14 17:16:00,
2013-05-14 11:21:00,70.3,29.7,30.21,SE,124,0.0,9.0,22,0.00,,,0.00,1101,WeatherCatV1.15B25,2013-05-14 17:21:00,
2013-05-14 11:26:00,70.9,30.2,30.21,SSE,154,9.0,12.0,22,0.00,,,0.00,1137,WeatherCatV1.15B25,2013-05-14 17:26:00,
2013-05-14 11:31:00,71.6,29.6,30.20,SSE,164,6.0,11.0,21,0.00,,,0.00,1161,WeatherCatV1.15B25,2013-05-14 17:31:00,
2013-05-14 11:36:00,72.1,28.8,30.20,SE,131,6.0,10.0,20,0.00,,,0.00,1207,WeatherCatV1.15B25,2013-05-14 17:36:00,
2013-05-14 11:41:00,71.6,29.6,30.20,ENE,73,1.0,6.0,21,0.00,,,0.00,1240,WeatherCatV1.15B25,2013-05-14 17:41:00,
2013-05-14 11:46:00,71.1,33.5,30.20,South,169,5.0,7.0,25,0.00,,,0.00,1218,WeatherCatV1.15B25,2013-05-14 17:46:00,
2013-05-14 11:51:00,70.4,29.7,30.20,SE,141,0.0,7.0,22,0.00,,,0.00,287,WeatherCatV1.15B25,2013-05-14 17:51:00,
2013-05-14 11:56:00,69.4,28.9,30.20,SSE,147,0.0,9.0,22,0.00,,,0.00,318,WeatherCatV1.15B25,2013-05-14 17:56:00,
2013-05-14 12:01:00,69.3,31.0,30.20,NW,319,7.0,14.0,24,0.00,,,0.00,318,WeatherCatV1.15B25,2013-05-14 18:01:00,
2013-05-14 12:06:00,67.6,32.4,30.20,West,263,5.0,7.0,27,0.00,,,0.00,371,WeatherCatV1.15B25,2013-05-14 18:06:00,
2013-05-14 12:11:00,66.8,32.6,30.20,West,261,11.0,13.0,28,0.00,,,0.00,1286,WeatherCatV1.15B25,2013-05-14 18:11:00,
2013-05-14 12:16:00,67.4,31.3,30.19,West,265,17.0,21.0,26,0.00,,,0.00,345,WeatherCatV1.15B25,2013-05-14 18:16:00,
2013-05-14 12:21:00,67.1,30.1,30.19,NW,318,13.0,17.0,25,0.00,,,0.00,285,WeatherCatV1.15B25,2013-05-14 18:21:00,
2013-05-14 12:26:00,66.8,28.8,30.19,NW,304,13.0,19.0,24,0.00,,,0.00,318,WeatherCatV1.15B25,2013-05-14 18:26:00,
2013-05-14 12:31:00,67.1,29.1,30.18,WNW,295,4.0,14.0,24,0.00,,,0.00,1175,WeatherCatV1.15B25,2013-05-14 18:31:00,
2013-05-14 12:36:00,68.6,29.3,30.18,WNW,288,10.0,18.0,23,0.00,,,0.00,1211,WeatherCatV1.15B25,2013-05-14 18:36:00,
2013-05-14 12:41:00,69.6,29.1,30.18,WSW,240,6.0,14.0,22,0.00,,,0.00,1311,WeatherCatV1.15B25,2013-05-14 18:41:00,
2013-05-14 12:46:00,70.6,32.0,30.18,NW,305,6.0,15.0,24,0.00,,,0.00,1281,WeatherCatV1.15B25,2013-05-14 18:46:00,
2013-05-14 12:51:00,71.3,30.5,30.18,West,280,7.0,19.0,22,0.00,,,0.00,1263,WeatherCatV1.15B25,2013-05-14 18:51:00,
2013-05-14 12:56:00,71.6,30.7,30.18,WNW,282,5.0,17.0,22,0.00,,,0.00,1242,WeatherCatV1.15B25,2013-05-14 18:56:00,
2013-05-14 13:01:00,71.3,29.3,30.17,WNW,285,8.0,18.0,21,0.00,,,0.00,1300,WeatherCatV1.15B25,2013-05-14 19:01:00,
2013-05-14 13:06:00,71.1,29.2,30.17,NW,313,7.0,12.0,21,0.00,,,0.00,1265,WeatherCatV1.15B25,2013-05-14 19:06:00,
2013-05-14 13:11:00,71.3,30.5,30.17,NW,305,18.0,26.0,22,0.00,,,0.00,1299,WeatherCatV1.15B25,2013-05-14 19:11:00,
2013-05-14 13:16:00,71.1,32.5,30.17,NNW,336,6.0,26.0,24,0.00,,,0.00,1114,WeatherCatV1.15B25,2013-05-14 19:16:00,
2013-05-14 13:21:00,70.9,32.3,30.17,North,357,17.0,17.0,24,0.00,,,0.00,1100,WeatherCatV1.15B25,2013-05-14 19:21:00,
2013-05-14 13:26:00,69.9,31.5,30.17,NNW,344,21.0,22.0,24,0.00,,,0.00,838,WeatherCatV1.15B25,2013-05-14 19:26:00,
2013-05-14 13:31:00,67.6,31.5,30.17,NNW,335,25.0,30.0,26,0.00,,,0.00,846,WeatherCatV1.15B25,2013-05-14 19:31:00,
2013-05-14 13:36:00,67.6,30.5,30.17,NNW,344,12.0,22.0,25,0.00,,,0.00,830,WeatherCatV1.15B25,2013-05-14 19:36:00,
2013-05-14 13:41:00,67.9,30.8,30.17,North,354,19.0,22.0,25,0.00,,,0.00,830,WeatherCatV1.15B25,2013-05-14 19:41:00,
2013-05-14 13:46:00,68.8,30.5,30.16,NNW,333,14.0,20.0,24,0.00,,,0.00,588,WeatherCatV1.15B25,2013-05-14 19:46:00,
2013-05-14 13:51:00,69.9,29.3,30.16,NNE,14,9.0,22.0,22,0.00,,,0.00,1131,WeatherCatV1.15B25,2013-05-14 19:51:00,
2013-05-14 13:56:00,69.9,28.2,30.16,North,356,16.0,17.0,21,0.00,,,0.00,421,WeatherCatV1.15B25,2013-05-14 19:56:00,
2013-05-14 14:01:00,68.8,28.4,30.16,North,1,11.0,14.0,22,0.00,,,0.00,345,WeatherCatV1.15B25,2013-05-14 20:01:00,
2013-05-14 14:06:00,67.8,29.7,30.16,NE,48,6.0,6.0,24,0.00,,,0.00,250,WeatherCatV1.15B25,2013-05-14 20:06:00,
2013-05-14 14:11:00,67.4,29.4,30.16,North,1,8.0,11.0,24,0.00,,,0.00,190,WeatherCatV1.15B25,2013-05-14 20:11:00,
2013-05-14 14:16:00,66.8,28.8,30.17,ENE,76,6.0,13.0,24,0.00,,,0.00,167,WeatherCatV1.15B25,2013-05-14 20:16:00,
2013-05-14 14:21:00,66.0,29.2,30.17,ENE,75,4.0,7.0,25,0.00,,,0.00,151,WeatherCatV1.15B25,2013-05-14 20:21:00,
2013-05-14 14:26:00,65.2,28.5,30.17,NE,54,10.0,13.0,25,0.00,,,0.00,127,WeatherCatV1.15B25,2013-05-14 20:26:00,
2013-05-14 14:31:00,64.7,28.1,30.17,NE,42,4.0,11.0,25,0.00,,,0.00,109,WeatherCatV1.15B25,2013-05-14 20:31:00,
2013-05-14 14:36:00,64.2,29.5,30.17,SSE,148,8.0,8.0,27,0.00,,,0.00,95,WeatherCatV1.15B25,2013-05-14 20:36:00,
2013-05-14 14:41:00,63.5,28.9,30.17,ESE,113,5.0,10.0,27,0.00,,,0.00,86,WeatherCatV1.15B25,2013-05-14 20:41:00,
2013-05-14 14:46:00,63.5,29.8,30.16,SSE,150,3.0,8.0,28,0.00,,,0.00,86,WeatherCatV1.15B25,2013-05-14 20:46:00,
2013-05-14 14:51:00,63.5,29.8,30.16,East,83,6.0,6.0,28,0.00,,,0.00,83,WeatherCatV1.15B25,2013-05-14 20:51:00,
2013-05-14 14:56:00,63.2,30.4,30.16,SSE,165,7.0,20.0,29,0.00,,,0.00,76,WeatherCatV1.15B25,2013-05-14 20:56:00,
2013-05-14 15:01:00,62.0,31.8,30.17,SSE,158,6.0,12.0,32,0.00,,,0.00,69,WeatherCatV1.15B25,2013-05-14 21:01:00,
2013-05-14 15:06:00,61.6,30.7,30.17,SSE,160,5.0,12.0,31,0.00,,,0.00,62,WeatherCatV1.15B25,2013-05-14 21:06:00,
2013-05-14 15:11:00,61.6,30.7,30.17,SSE,154,6.0,13.0,31,0.00,,,0.00,62,WeatherCatV1.15B25,2013-05-14 21:11:00,
2013-05-14 15:16:00,61.6,32.2,30.18,SE,133,0.0,8.0,33,0.00,,,0.00,72,WeatherCatV1.15B25,2013-05-14 21:16:00,
2013-05-14 15:21:00,61.5,33.6,30.18,NE,55,5.0,10.0,35,0.00,,,0.00,88,WeatherCatV1.15B25,2013-05-14 21:21:00,
2013-05-14 15:26:00,61.0,33.9,30.18,NE,55,9.0,11.0,36,0.00,,,0.00,111,WeatherCatV1.15B25,2013-05-14 21:26:00,
2013-05-14 15:31:00,60.7,33.6,30.19,ESE,116,8.0,11.0,36,0.00,,,0.00,128,WeatherCatV1.15B25,2013-05-14 21:31:00,
2013-05-14 15:36:00,60.1,35.1,30.19,East,92,4.0,11.0,39,0.00,,,0.00,141,WeatherCatV1.15B25,2013-05-14 21:36:00,
2013-05-14 15:41:00,59.9,35.5,30.19,NE,38,0.0,6.0,40,0.00,,,0.00,158,WeatherCatV1.15B25,2013-05-14 21:41:00,
2013-05-14 15:46:00,59.9,35.5,30.20,NNE,24,4.0,6.0,40,0.00,,,0.00,183,WeatherCatV1.15B25,2013-05-14 21:46:00,
2013-05-14 15:51:00,59.9,34.2,30.20,NNE,27,5.0,5.0,38,0.00,,,0.00,204,WeatherCatV1.15B25,2013-05-14 21:51:00,
2013-05-14 15:56:00,60.1,35.7,30.20,NNE,27,1.0,3.0,40,0.00,,,0.00,218,WeatherCatV1.15B25,2013-05-14 21:56:00,
2013-05-14 16:01:00,60.4,35.3,30.20,ENE,65,0.0,7.0,39,0.00,,,0.00,238,WeatherCatV1.15B25,2013-05-14 22:01:00,
2013-05-14 16:06:00,60.4,36.6,30.20,ESE,109,6.0,7.0,41,0.00,,,0.00,257,WeatherCatV1.15B25,2013-05-14 22:06:00,
2013-05-14 16:11:00,60.2,37.0,30.20,ESE,106,7.0,10.0,42,0.00,,,0.00,252,WeatherCatV1.15B25,2013-05-14 22:11:00,
2013-05-14 16:16:00,59.9,37.3,30.20,ESE,117,8.0,14.0,43,0.00,,,0.00,274,WeatherCatV1.15B25,2013-05-14 22:16:00,
2013-05-14 16:21:00,59.6,38.2,30.20,SE,133,17.0,19.0,45,0.00,,,0.00,276,WeatherCatV1.15B25,2013-05-14 22:21:00,
2013-05-14 16:26:00,58.7,39.1,30.20,ESE,114,11.0,13.0,48,0.00,,,0.00,362,WeatherCatV1.15B25,2013-05-14 22:26:00,
2013-05-14 16:31:00,58.7,39.6,30.21,SE,127,14.0,17.0,49,0.00,,,0.00,438,WeatherCatV1.15B25,2013-05-14 22:31:00,
2013-05-14 16:36:00,58.7,39.1,30.21,East,80,12.0,17.0,48,0.00,,,0.00,445,WeatherCatV1.15B25,2013-05-14 22:36:00,
2013-05-14 16:41:00,58.7,38.5,30.21,ESE,104,7.0,8.0,47,0.00,,,0.00,361,WeatherCatV1.15B25,2013-05-14 22:41:00,
2013-05-14 16:46:00,58.7,38.5,30.22,ESE,106,5.0,13.0,47,0.00,,,0.00,320,WeatherCatV1.15B25,2013-05-14 22:46:00,
2013-05-14 16:51:00,58.6,39.0,30.22,East,86,6.0,6.0,48,0.00,,,0.00,287,WeatherCatV1.15B25,2013-05-14 22:51:00,
2013-05-14 16:56:00,58.6,38.4,30.22,East,96,7.0,7.0,47,0.00,,,0.00,299,WeatherCatV1.15B25,2013-05-14 22:56:00,
2013-05-14 17:01:00,58.4,38.2,30.22,ESE,106,2.0,5.0,47,0.00,,,0.00,380,WeatherCatV1.15B25,2013-05-14 23:01:00,
2013-05-14 17:06:00,58.6,37.9,30.22,East,88,3.0,5.0,46,0.00,,,0.00,299,WeatherCatV1.15B25,2013-05-14 23:06:00,
2013-05-14 17:11:00,58.6,38.4,30.22,East,88,0.0,0.0,47,0.00,,,0.00,225,WeatherCatV1.15B25,2013-05-14 23:11:00,
2013-05-14 17:16:00,58.7,37.4,30.21,East,88,0.0,0.0,45,0.00,,,0.00,238,WeatherCatV1.15B25,2013-05-14 23:16:00,
2013-05-14 17:21:00,58.4,37.1,30.21,East,86,3.0,3.0,45,0.00,,,0.00,162,WeatherCatV1.15B25,2013-05-14 23:21:00,
2013-05-14 17:26:00,58.1,37.4,30.21,East,86,2.0,3.0,46,0.00,,,0.00,139,WeatherCatV1.15B25,2013-05-14 23:26:00,
2013-05-14 17:31:00,57.8,36.0,30.21,East,86,0.0,2.0,44,0.00,,,0.00,121,WeatherCatV1.15B25,2013-05-14 23:31:00,
2013-05-14 17:36:00,57.5,36.9,30.21,East,86,0.0,0.0,46,0.00,,,0.00,104,WeatherCatV1.15B25,2013-05-14 23:36:00,
2013-05-14 17:41:00,57.2,36.6,30.21,East,86,0.0,0.0,46,0.00,,,0.00,90,WeatherCatV1.15B25,2013-05-14 23:41:00,
2013-05-14 17:46:00,57.0,36.4,30.21,East,86,0.0,0.0,46,0.00,,,0.00,74,WeatherCatV1.15B25,2013-05-14 23:46:00,
2013-05-14 17:51:00,57.0,36.4,30.21,East,86,0.0,0.0,46,0.00,,,0.00,63,WeatherCatV1.15B25,2013-05-14 23:51:00,
2013-05-14 17:56:00,57.0,36.4,30.21,East,86,0.0,0.0,46,0.00,,,0.00,58,WeatherCatV1.15B25,2013-05-14 23:56:00,
2013-05-14 18:01:00,56.9,36.3,30.20,East,86,0.0,0.0,46,0.00,,,0.00,60,WeatherCatV1.15B25,2013-05-15 00:01:00,
2013-05-14 18:06:00,56.9,36.9,30.20,East,86,0.0,0.0,47,0.00,,,0.00,60,WeatherCatV1.15B25,2013-05-15 00:06:00,
2013-05-14 18:11:00,56.9,36.9,30.20,East,86,0.0,0.0,47,0.00,,,0.00,60,WeatherCatV1.15B25,2013-05-15 00:11:00,
2013-05-14 18:16:00,56.7,37.8,30.20,East,86,0.0,0.0,49,0.00,,,0.00,62,WeatherCatV1.15B25,2013-05-15 00:16:00,
2013-05-14 18:21:00,56.6,37.1,30.20,East,86,0.0,0.0,48,0.00,,,0.00,63,WeatherCatV1.15B25,2013-05-15 00:21:00,
2013-05-14 18:26:00,56.5,37.0,30.20,East,86,0.0,0.0,48,0.00,,,0.00,62,WeatherCatV1.15B25,2013-05-15 00:26:00,
2013-05-14 18:31:00,56.3,37.9,30.19,East,86,0.0,2.0,50,0.00,,,0.00,62,WeatherCatV1.15B25,2013-05-15 00:31:00,
2013-05-14 18:36:00,56.3,37.4,30.19,East,86,0.0,0.0,49,0.00,,,0.00,62,WeatherCatV1.15B25,2013-05-15 00:36:00,
2013-05-14 18:41:00,56.3,37.4,30.19,NW,309,0.0,6.0,49,0.00,,,0.00,58,WeatherCatV1.15B25,2013-05-15 00:41:00,
2013-05-14 18:46:00,56.3,37.9,30.18,NW,308,0.0,0.0,50,0.00,,,0.00,60,WeatherCatV1.15B25,2013-05-15 00:46:00,
2013-05-14 18:51:00,56.3,37.9,30.18,NW,326,3.0,6.0,50,0.00,,,0.00,63,WeatherCatV1.15B25,2013-05-15 00:51:00,
2013-05-14 18:56:00,56.5,38.1,30.18,WNW,301,5.0,6.0,50,0.00,,,0.00,63,WeatherCatV1.15B25,2013-05-15 00:56:00,
2013-05-14 19:01:00,56.5,37.6,30.18,WNW,299,5.0,6.0,49,0.00,,,0.00,63,WeatherCatV1.15B25,2013-05-15 01:01:00,
2013-05-14 19:06:00,56.6,37.7,30.18,WNW,294,6.0,7.0,49,0.00,,,0.00,58,WeatherCatV1.15B25,2013-05-15 01:06:00,
2013-05-14 19:11:00,56.6,38.2,30.18,NW,309,6.0,7.0,50,0.00,,,0.00,51,WeatherCatV1.15B25,2013-05-15 01:11:00,
2013-05-14 19:16:00,56.5,37.0,30.18,NW,318,4.0,10.0,48,0.00,,,0.00,44,WeatherCatV1.15B25,2013-05-15 01:16:00,
2013-05-14 19:21:00,56.5,37.0,30.18,NW,304,5.0,11.0,48,0.00,,,0.00,37,WeatherCatV1.15B25,2013-05-15 01:21:00,
2013-05-14 19:26:00,56.5,36.5,30.18,WNW,294,6.0,10.0,47,0.00,,,0.00,32,WeatherCatV1.15B25,2013-05-15 01:26:00,
2013-05-14 19:31:00,56.3,36.3,30.18,NW,316,10.0,13.0,47,0.00,,,0.00,26,WeatherCatV1.15B25,2013-05-15 01:31:00,
2013-05-14 19:36:00,56.3,36.3,30.18,NW,316,10.0,11.0,47,0.00,,,0.00,23,WeatherCatV1.15B25,2013-05-15 01:36:00,
2013-05-14 19:41:00,56.3,36.3,30.18,NNW,329,7.0,9.0,47,0.00,,,0.00,14,WeatherCatV1.15B25,2013-05-15 01:41:00,
2013-05-14 19:46:00,56.2,36.8,30.18,North,354,6.0,8.0,48,0.00,,,0.00,11,WeatherCatV1.15B25,2013-05-15 01:46:00,
2013-05-14 19:51:00,56.2,36.2,30.18,North,350,7.0,8.0,47,0.00,,,0.00,7,WeatherCatV1.15B25,2013-05-15 01:51:00,
2013-05-14 19:56:00,56.2,36.2,30.18,NNW,330,8.0,8.0,47,0.00,,,0.00,7,WeatherCatV1.15B25,2013-05-15 01:56:00,
2013-05-14 20:01:00,56.2,36.2,30.19,NNW,344,6.0,10.0,47,0.00,,,0.00,5,WeatherCatV1.15B25,2013-05-15 02:01:00,
2013-05-14 20:06:00,56.2,36.2,30.19,WNW,291,3.0,6.0,47,0.00,,,0.00,0,WeatherCatV1.15B25,2013-05-15 02:06:00,
2013-05-14 20:11:00,56.2,35.7,30.19,WNW,298,2.0,7.0,46,0.00,,,0.00,0,WeatherCatV1.15B25,2013-05-15 02:11:00,
2013-05-14 20:16:00,56.2,36.2,30.19,WNW,298,3.0,3.0,47,0.00,,,0.00,0,WeatherCatV1.15B25,2013-05-15 02:16:00,
2013-05-14 20:21:00,56.0,36.1,30.19,North,0,0.0,6.0,47,0.00,,,0.00,0,WeatherCatV1.15B25,2013-05-15 02:21:00,
2013-05-14 20:26:00,55.9,36.0,30.19,North,0,0.0,0.0,47,0.00,,,0.00,0,WeatherCatV1.15B25,2013-05-15 02:26:00,
2013-05-14 20:31:00,55.7,36.3,30.20,North,0,0.0,1.0,48,0.00,,,0.00,0,WeatherCatV1.15B25,2013-05-15 02:31:00,
2013-05-14 20:36:00,55.6,36.2,30.20,North,0,0.0,0.0,48,0.00,,,0.00,0,WeatherCatV1.15B25,2013-05-15 02:36:00,
2013-05-14 20:41:00,55.4,36.0,30.20,North,0,0.0,0.0,48,0.00,,,0.00,0,WeatherCatV1.15B25,2013-05-15 02:41:00,
2013-05-14 20:46:00,55.3,37.0,30.20,North,0,0.0,0.0,50,0.00,,,0.00,0,WeatherCatV1.15B25,2013-05-15 02:46:00,
2013-05-14 20:51:00,55.0,36.7,30.20,North,0,0.0,0.0,50,0.00,,,0.00,0,WeatherCatV1.15B25,2013-05-15 02:51:00,
2013-05-14 20:56:00,54.8,38.0,30.20,North,0,0.0,0.0,53,0.00,,,0.00,0,WeatherCatV1.15B25,2013-05-15 02:56:00,
2013-05-14 21:01:00,54.5,38.7,30.20,North,0,0.0,0.0,55,0.00,,,0.00,0,WeatherCatV1.15B25,2013-05-15 03:01:00,
2013-05-14 21:06:00,54.1,37.4,30.20,North,0,2.0,5.0,53,0.00,,,0.00,0,WeatherCatV1.15B25,2013-05-15 03:06:00,
2013-05-14 21:11:00,53.8,37.1,30.20,North,0,2.0,3.0,53,0.00,,,0.00,0,WeatherCatV1.15B25,2013-05-15 03:11:00,
2013-05-14 21:16:00,53.6,36.4,30.20,North,0,2.0,5.0,52,0.00,,,0.00,0,WeatherCatV1.15B25,2013-05-15 03:16:00,
2013-05-14 21:21:00,53.5,36.3,30.20,North,0,0.0,4.0,52,0.00,,,0.00,0,WeatherCatV1.15B25,2013-05-15 03:21:00,
2013-05-14 21:26:00,53.5,37.7,30.20,North,0,0.0,0.0,55,0.00,,,0.00,0,WeatherCatV1.15B25,2013-05-15 03:26:00,
2013-05-14 21:31:00,53.1,38.7,30.20,North,0,0.0,0.0,58,0.00,,,0.00,0,WeatherCatV1.15B25,2013-05-15 03:31:00,
2013-05-14 21:36:00,52.8,37.5,30.20,North,0,0.0,0.0,56,0.00,,,0.00,0,WeatherCatV1.15B25,2013-05-15 03:36:00,
2013-05-14 21:41:00,52.6,36.0,30.20,NW,320,2.0,7.0,53,0.00,,,0.00,0,WeatherCatV1.15B25,2013-05-15 03:41:00,
2013-05-14 21:46:00,52.6,36.0,30.20,NW,320,2.0,7.0,53,0.00,,,0.00,0,WeatherCatV1.15B25,2013-05-15 03:46:00,
2013-05-14 21:51:00,52.6,36.0,30.20,NW,319,1.0,6.0,53,0.00,,,0.00,0,WeatherCatV1.15B25,2013-05-15 03:51:00,
2013-05-14 21:56:00,52.6,36.9,30.20,NW,320,6.0,6.0,55,0.00,,,0.00,0,WeatherCatV1.15B25,2013-05-15 03:56:00,
2013-05-14 22:01:00,52.6,36.4,30.20,NW,318,0.0,3.0,54,0.00,,,0.00,0,WeatherCatV1.15B25,2013-05-15 04:01:00,
2013-05-14 22:05:00,52.6,36.0,30.20,NW,318,2.0,3.0,53,0.00,,,0.00,0,WeatherCatV1.15B25,2013-05-15 04:05:00,
2013-05-14 22:06:00,52.6,36.0,30.20,NW,318,0.0,0.0,53,0.00,,,0.00,0,WeatherCatV1.15B25,2013-05-15 04:06:00,
2013-05-14 22:10:00,52.6,36.0,30.20,NW,318,2.0,3.0,53,0.00,,,0.00,0,WeatherCatV1.15B25,2013-05-15 04:10:00,
2013-05-14 22:15:00,52.5,37.7,30.20,SSW,202,1.0,7.0,57,0.00,,,0.00,0,WeatherCatV1.15B25,2013-05-15 04:15:00,
2013-05-14 22:20:00,52.5,37.7,30.20,SSW,202,1.0,7.0,57,0.00,,,0.00,0,WeatherCatV1.15B25,2013-05-15 04:20:00,
2013-05-14 22:25:00,52.5,37.7,30.20,SSW,202,1.0,7.0,57,0.00,,,0.00,0,WeatherCatV1.15B25,2013-05-15 04:25:00,
2013-05-14 22:30:00,52.5,38.2,30.20,ESE,112,4.0,14.0,58,0.00,,,0.00,0,WeatherCatV1.15B25,2013-05-15 04:30:00,
2013-05-14 22:35:00,52.5,38.2,30.20,ESE,112,4.0,14.0,58,0.00,,,0.00,0,WeatherCatV1.15B25,2013-05-15 04:35:00,
2013-05-14 22:40:00,52.5,38.2,30.20,ESE,112,4.0,14.0,58,0.00,,,0.00,0,WeatherCatV1.15B25,2013-05-15 04:40:00,
2013-05-14 22:45:00,51.9,39.3,30.19,SSW,202,0.0,4.0,62,0.00,,,0.00,0,WeatherCatV1.15B25,2013-05-15 04:45:00,
2013-05-14 22:50:00,51.9,39.3,30.19,SSW,202,0.0,4.0,62,0.00,,,0.00,0,WeatherCatV1.15B25,2013-05-15 04:50:00,
2013-05-14 22:55:00,51.9,39.3,30.19,SSW,202,0.0,4.0,62,0.00,,,0.00,0,WeatherCatV1.15B25,2013-05-15 04:55:00,
2013-05-14 23:00:00,51.9,39.3,30.19,SSW,202,0.0,4.0,62,0.00,,,0.00,0,WeatherCatV1.15B25,2013-05-15 05:00:00,
2013-05-14 23:05:00,50.7,37.3,30.19,SSW,202,2.0,7.0,60,0.00,,,0.00,0,WeatherCatV1.15B25,2013-05-15 05:05:00,
2013-05-14 23:10:00,50.7,37.3,30.19,SSW,202,2.0,7.0,60,0.00,,,0.00,0,WeatherCatV1.15B25,2013-05-15 05:10:00,
2013-05-14 23:15:00,50.7,37.3,30.19,SSW,202,2.0,7.0,60,0.00,,,0.00,0,WeatherCatV1.15B25,2013-05-15 05:15:00,
2013-05-14 23:20:00,49.6,38.3,30.19,WSW,248,1.0,6.0,65,0.00,,,0.00,0,WeatherCatV1.15B25,2013-05-15 05:20:00,
2013-05-14 23:25:00,49.6,38.3,30.19,WSW,248,1.0,6.0,65,0.00,,,0.00,0,WeatherCatV1.15B25,2013-05-15 05:25:00,
2013-05-14 23:30:00,49.6,38.3,30.19,WSW,248,1.0,6.0,65,0.00,,,0.00,0,WeatherCatV1.15B25,2013-05-15 05:30:00,
2013-05-14 23:35:00,48.5,38.4,30.19,WSW,248,0.0,0.0,68,0.00,,,0.00,0,WeatherCatV1.15B25,2013-05-15 05:35:00,
2013-05-14 23:40:00,48.5,38.4,30.19,WSW,248,0.0,0.0,68,0.00,,,0.00,0,WeatherCatV1.15B25,2013-05-15 05:40:00,
2013-05-14 23:45:00,48.5,38.4,30.19,WSW,248,0.0,0.0,68,0.00,,,0.00,0,WeatherCatV1.15B25,2013-05-15 05:45:00,
2013-05-14 23:50:00,47.0,38.1,30.19,WSW,248,0.0,0.0,71,0.00,,,0.00,0,WeatherCatV1.15B25,2013-05-15 05:50:00,
2013-05-14 23:55:00,47.0,38.1,30.19,WSW,248,0.0,0.0,71,0.00,,,0.00,0,WeatherCatV1.15B25,2013-05-15 05:55:00,